Regional Weather Roundup
Issued by NWS

Home | Current Version | Previous Version | Text Only | Print | Product List | Glossary Off
Versions: 1 2 3 4 5 6 7 8 9 10 11 12 13 14 15 16 17 18 19 20 21 22 23 24 25 26 27 28 29 30 31 32 33 34 35 36 37 38 39 40 41 42 43 44 45 46 47 48 49 50

000
ASUS45 KCYS 292010
RWRWY

WYOMING REGIONAL WEATHER ROUNDUP
NATIONAL WEATHER SERVICE CHEYENNE WY
200 PM MDT MON MAY 29 2017

NOTE:  "FAIR" INDICATES FEW OR NO CLOUDS BELOW 12,000 FEET
WITH NO SIGNIFICANT WEATHER AND/OR OBSTRUCTIONS TO VISIBILITY.

WYZ001-292100-
YELLOWSTONE NATIONAL PARK

CITY           SKY/WX    TMP DP  RH WIND       PRES   REMARKS
LK YELLOWSTONE   N/A     58  29  33 VRB3      30.35F
W YELLOWSTONE  NOT AVBL

$$
WYZ002>013-054>058-071-098>099-292100-
NORTHERN WYOMING

CITY           SKY/WX    TMP DP  RH WIND       PRES   REMARKS
JACKSON        MOSUNNY   66  30  26 S5        30.27F
CODY           FAIR      66  36  32 VRB6      30.25F
GREYBULL       FAIR      73  34  23 N13G20    30.17F
WORLAND        FAIR      70  37  29 VRB6      30.19F
SHERIDAN       FAIR      68  39  34 NW20G26   30.21F
BUFFALO        FAIR      65  36  34 N29G37    30.22F
GILLETTE       FAIR      66  33  29 N16G32    30.19F
HULETT         FAIR      63  27  25 NW12G17   30.20F
NEWCASTLE      FAIR      64  21  19 NW17G28   30.19S

$$
WYZ014>020-022>026-101>103-292100-
CENTRAL WYOMING

CITY           SKY/WX    TMP DP  RH WIND       PRES   REMARKS
BIG PINEY      PTSUNNY   63  31  30 VRB3      30.30F
PINEDALE       FAIR      63  30  29 N3        30.30F
DUBOIS         MOCLDY    64  27  24 E5        30.27S
LANDER         FAIR      66  43  43 E6        30.23F
RIVERTON       FAIR      67  39  35 VRB5      30.24F
CASPER         FAIR      63  40  42 VRB3      30.23F
DOUGLAS        FAIR      69  37  30 NW14G23   30.23F

$$
WYZ021-027>030-104>119-292100-
SOUTHERN WYOMING

CITY           SKY/WX    TMP DP  RH WIND       PRES   REMARKS
EVANSTON       FAIR      64  30  27 VRB5      30.28S
KEMMERER         N/A     63  32  31 CALM      30.30F
FORT BRIDGER   FAIR      65  28  25 NE5       30.31F
ROCK SPRINGS   FAIR      63  30  28 VRB3      30.27F
DIXON            N/A     66  31  27 W3        30.27F
RAWLINS        CLOUDY    63  32  31 N10       30.28F
SARATOGA       MOCLDY    63  32  31 N5G24     30.30F
LARAMIE        CLOUDY    59  32  36 NW13      30.28F
CHEYENNE       CLOUDY    60  41  49 SE8       30.25F
TORRINGTON     FAIR      70  31  23 N18G24    30.16F
PINE BLUFFS    FAIR      66  36  32 NW10G16   30.22F

$$



USA.gov is the U.S. government's official web portal to all federal, state and local government web resources and services.